GW1469 Weather Reports


time (UTC)temp
F
wind
direction
speed
knots
gust
knots
rain 1hr
in
rain 24hr
in
rain mn
in
humidity
%
barometer
mb
20260508023341 45 109 0.0 0.0 0.00 0.00 0.01 99 1025.3
20260508022723 45 110 0.0 0.0 0.00 0.00 0.01 99 1025.0
20260508021515 45 109 0.0 0.0 0.00 0.00 0.01 99 1024.7
20260508020945 45 110 0.0 0.0 0.00 0.00 0.01 99 1024.7
20260508020349 46 109 0.0 0.0 0.00 0.00 0.01 98 1024.3
20260508015738 46 110 0.0 0.0 0.00 0.00 0.01 98 1024.3
20260508015145 46 110 0.0 0.0 0.00 0.00 0.01 98 1024.3
20260508014517 46 110 0.0 0.0 0.00 0.00 0.01 98 1024.3
20260508012725 47 109 0.0 0.0 0.00 0.00 0.01 97 1024.3
20260508011528 48 110 0.0 0.0 0.00 0.00 0.01 95 1024.0
20260508010935 48 109 0.0 0.0 0.00 0.00 0.01 95 1024.0
20260508010349 48 110 0.0 0.0 0.00 0.00 0.01 94 1023.7
20260508005736 49 110 0.0 0.0 0.00 0.00 0.01 92 1023.7
20260508003908 50 109 0.0 0.0 0.00 0.00 0.01 89 1023.3
20260508003340 51 110 0.0 0.0 0.00 0.00 0.01 88 1023.7
20260508002734 51 110 0.0 0.0 0.00 0.00 0.01 86 1023.7
20260508002110 52 110 0.0 0.0 0.00 0.00 0.01 85 1023.3
20260508001532 52 110 0.0 0.0 0.00 0.00 0.01 85 1023.3
20260508000949 53 110 0.0 0.0 0.00 0.00 0.01 85 1023.3
20260508000335 53 110 0.0 0.0 0.00 0.00 0.01 85 1023.3
20260507235747 54 110 0.0 0.0 0.00 0.00 0.01 84 1023.3
20260507235119 54 110 0.0 0.0 0.00 0.00 0.01 84 1023.3
20260507234551 55 110 0.0 0.0 0.00 0.00 0.01 84 1023.0
20260507233938 56 110 0.0 0.0 0.00 0.00 0.01 85 1023.0
20260507233347 56 109 0.0 0.0 0.00 0.00 0.01 75 1023.0
20260507231535 57 125 0.0 0.0 0.00 0.00 0.01 81 1023.0
20260507225744 59 126 0.0 0.9 0.00 0.00 0.01 69 1022.6
20260507225120 59 127 0.0 0.0 0.00 0.00 0.01 65 1022.6
20260507224527 58 122 0.0 0.0 0.00 0.00 0.01 70 1023.0
20260507223918 58 122 0.0 0.0 0.00 0.00 0.01 71 1023.0
20260507223338 59 123 0.0 0.0 0.00 0.00 0.01 64 1023.0
20260507222719 59 120 0.0 0.9 0.00 0.00 0.01 63 1023.0
20260507221516 60 32 1.7 1.7 0.00 0.00 0.01 57 1023.0
20260507220312 61 91 0.0 0.0 0.00 0.00 0.01 57 1022.6
20260507215738 61 110 0.0 0.0 0.00 0.00 0.01 59 1022.6
20260507215144 61 100 0.9 0.9 0.00 0.00 0.01 60 1022.6
20260507213944 59 108 0.0 0.0 0.00 0.00 0.01 61 1022.6
20260507212737 61 115 0.0 0.0 0.00 0.00 0.01 61 1022.3
20260507211532 60 226 2.6 3.5 0.00 0.00 0.01 58 1022.3
20260507210928 60 90 0.0 0.9 0.00 0.00 0.01 60 1022.6
20260507210344 61 118 0.9 0.9 0.00 0.00 0.01 59 1022.6
20260507204547 59 96 0.9 0.9 0.00 0.00 0.01 61 1022.3
20260507202737 58 118 0.0 0.0 0.00 0.00 0.01 65 1022.6
20260507202152 58 117 0.0 0.0 0.00 0.00 0.01 67 1022.6
20260507201538 58 111 0.0 0.0 0.00 0.00 0.01 70 1022.6
20260507200938 59 133 1.7 2.6 0.00 0.00 0.01 66 1022.3
20260507195752 60 154 3.5 3.5 0.00 0.00 0.01 61 1022.6
20260507195151 58 82 0.0 0.0 0.00 0.00 0.01 70 1022.6
20260507194514 58 98 0.9 0.9 0.00 0.00 0.01 66 1023.0
20260507193951 58 128 0.9 0.9 0.00 0.00 0.01 64 1023.0
20260507192732 57 131 0.0 0.0 0.00 0.00 0.01 70 1023.3
20260507192146 56 138 0.9 1.7 0.00 0.00 0.01 70 1023.3
20260507191535 55 128 0.0 0.0 0.00 0.00 0.01 69 1023.3
20260507190936 56 107 0.9 0.9 0.00 0.00 0.01 70 1023.3
20260507185724 58 126 0.0 0.9 0.00 0.00 0.01 66 1023.3
20260507185150 59 129 2.6 2.6 0.00 0.00 0.01 64 1023.3
20260507184549 56 117 0.9 0.9 0.00 0.00 0.01 69 1023.3
20260507183952 57 214 1.7 1.7 0.00 0.00 0.01 70 1023.3
20260507183308 57 82 0.0 0.0 0.00 0.00 0.01 67 1023.3
20260507182714 57 131 2.6 3.5 0.00 0.00 0.01 66 1023.3
20260507182150 55 107 0.9 0.9 0.00 0.00 0.01 72 1023.7
20260507181510 55 101 0.9 0.9 0.00 0.00 0.01 69 1023.7
20260507180928 56 101 0.9 1.7 0.00 0.00 0.01 68 1023.7
20260507180324 56 109 0.0 0.0 0.00 0.00 0.01 67 1023.7
20260507174520 56 129 1.7 1.7 0.00 0.00 0.01 66 1023.7
20260507173945 57 223 2.6 3.5 0.00 0.00 0.01 66 1023.3
20260507172732 56 172 0.0 1.7 0.00 0.00 0.01 74 1023.7
20260507172129 55 114 0.9 0.9 0.00 0.00 0.01 71 1023.7
20260507170911 56 90 0.9 1.7 0.00 0.00 0.01 69 1023.7
20260507170321 55 148 1.7 1.7 0.00 0.00 0.01 65 1023.7
20260507165750 56 129 0.9 1.7 0.00 0.00 0.01 69 1023.7
20260507165135 55 89 0.9 0.9 0.00 0.00 0.01 69 1023.7
20260507163923 55 160 2.6 2.6 0.00 0.00 0.01 70 1023.7
20260507162722 55 157 1.7 2.6 0.00 0.00 0.01 72 1023.7
20260507162152 55 104 0.0 0.0 0.00 0.00 0.01 72 1024.0
20260507161555 55 150 1.7 1.7 0.00 0.00 0.01 77 1023.7
20260507160923 54 142 1.7 2.6 0.00 0.00 0.01 80 1024.0
20260507160346 55 98 0.0 0.0 0.00 0.00 0.01 80 1023.7
20260507155731 54 93 0.0 0.0 0.00 0.00 0.01 76 1023.7
20260507155123 54 110 0.9 1.7 0.00 0.00 0.01 75 1023.7
20260507154519 55 126 1.7 1.7 0.00 0.00 0.01 76 1023.7
20260507153911 54 126 0.9 0.9 0.00 0.00 0.01 74 1023.7
20260507153316 54 148 1.7 1.7 0.00 0.00 0.01 77 1024.0
20260507152750 54 96 0.0 0.0 0.00 0.00 0.01 86 1023.7
20260507151534 53 114 0.0 0.0 0.00 0.00 0.01 87 1023.7
20260507150347 52 110 0.0 0.0 0.00 0.00 0.01 90 1023.7
20260507145715 52 115 0.0 0.0 0.00 0.00 0.01 86 1023.7
20260507145111 51 114 0.0 0.9 0.00 0.00 0.01 92 1024.0
20260507144515 52 141 0.9 0.9 0.00 0.00 0.01 93 1023.7
20260507143939 51 116 0.0 0.0 0.00 0.00 0.01 91 1023.7
20260507143320 51 117 0.0 0.0 0.00 0.00 0.01 94 1023.7
20260507142123 51 115 0.9 0.9 0.00 0.00 0.01 94 1023.7
20260507141518 51 114 0.0 0.0 0.00 0.00 0.01 97 1023.7
20260507140926 50 123 0.0 0.0 0.00 0.00 0.01 98 1023.7
20260507140342 50 118 0.0 0.9 0.00 0.00 0.01 98 1024.0
20260507135143 50 118 0.0 0.0 0.00 0.00 0.01 98 1024.0
20260507134519 50 118 0.0 0.0 0.00 0.00 0.01 98 1024.0
20260507133319 50 118 0.0 0.0 0.00 0.00 0.01 98 1024.0
20260507132743 50 118 0.0 0.0 0.00 0.00 0.01 99 1023.7
20260507132122 50 118 0.0 0.0 0.00 0.00 0.01 99 1024.0
20260507130911 50 118 0.0 0.0 0.00 0.00 0.01 99 1024.0
20260507130311 49 117 0.0 0.0 0.00 0.00 0.01 99 1024.0
20260507124550 49 118 0.0 0.0 0.00 0.00 0.01 99 1023.7
20260507123943 49 118 0.0 0.0 0.00 0.00 0.01 99 1023.7
20260507123343 49 118 0.0 0.0 0.00 0.00 0.01 99 1024.0
20260507122748 49 118 0.0 0.0 0.00 0.00 0.01 99 1024.0
20260507122127 49 118 0.0 0.0 0.00 0.00 0.01 99 1024.0
20260507120340 49 118 0.0 0.0 0.00 0.00 0.01 99 1024.3
20260507115712 49 118 0.0 0.0 0.00 0.00 0.01 99 1024.0
20260507115146 49 118 0.0 0.0 0.00 0.00 0.01 99 1024.0
20260507114527 48 118 0.0 0.0 0.00 0.00 0.01 99 1024.0
20260507113916 48 118 0.0 0.0 0.00 0.00 0.01 99 1023.7
20260507113326 48 118 0.0 0.0 0.00 0.00 0.01 99 1023.7
20260507112752 48 117 0.0 0.0 0.00 0.00 0.01 99 1023.7
20260507111513 48 114 0.0 0.0 0.00 0.00 0.01 99 1023.3
20260507110940 49 114 0.0 0.0 0.00 0.00 0.01 99 1023.7
20260507110320 49 113 0.0 0.0 0.00 0.00 0.01 99 1023.3
20260507105718 49 113 0.0 0.0 0.00 0.00 0.01 99 1023.3
20260507105143 48 113 0.0 0.0 0.00 0.00 0.01 99 1023.3
20260507104546 48 113 0.0 0.0 0.00 0.00 0.01 99 1023.3
20260507103320 49 114 0.0 0.0 0.00 0.00 0.01 99 1023.3
20260507102729 48 114 0.0 0.0 0.00 0.00 0.01 99 1023.3
20260507101525 49 109 0.9 0.9 0.00 0.00 0.01 99 1023.3
20260507100912 49 104 0.9 0.9 0.00 0.00 0.01 99 1023.0
20260507100332 49 96 0.0 0.0 0.00 0.00 0.01 99 1023.3
20260507095740 50 123 0.9 0.9 0.00 0.00 0.01 99 1023.3
20260507095110 50 96 0.0 0.0 0.00 0.00 0.01 99 1023.0
20260507093930 51 75 0.9 0.9 0.00 0.00 0.01 99 1022.6
20260507093344 51 113 0.9 0.9 0.00 0.00 0.01 99 1022.6
20260507092744 51 110 0.0 0.0 0.00 0.00 0.01 99 1022.6
20260507092130 51 110 0.0 0.0 0.00 0.00 0.01 99 1022.6
20260507091510 51 110 0.0 0.0 0.00 0.00 0.01 99 1022.6
20260507090940 52 111 0.0 0.0 0.00 0.00 0.01 99 1022.6
20260507090318 52 109 0.0 0.0 0.00 0.00 0.01 99 1022.6
20260507085715 52 110 0.0 0.0 0.00 0.00 0.00 99 1023.0
20260507085109 52 110 0.0 0.0 0.00 0.00 0.00 99 1023.0
20260507084541 52 110 0.0 0.0 0.00 0.00 0.00 99 1023.0
20260507083925 52 110 0.0 0.0 0.00 0.00 0.00 99 1023.3
20260507083327 52 110 0.0 0.0 0.00 0.00 0.00 99 1023.0
20260507082121 52 110 0.0 0.0 0.00 0.00 0.00 99 1022.6
20260507081530 52 110 0.0 0.0 0.00 0.00 0.00 99 1023.0
20260507080917 52 110 0.0 0.0 0.00 0.00 0.00 99 1022.6
20260507080337 52 110 0.0 0.0 0.00 0.00 0.00 99 1022.6
20260507075716 52 110 0.0 0.0 0.00 0.00 0.00 99 1022.6
20260507075136 52 110 0.0 0.0 0.00 0.00 0.00 99 1022.3
20260507074541 52 110 0.0 0.0 0.00 0.00 0.00 99 1022.6
20260507073952 52 110 0.0 0.0 0.00 0.00 0.00 99 1022.6
20260507073329 52 110 0.0 0.0 0.00 0.00 0.00 99 1023.0
20260507072748 52 110 0.0 0.0 0.00 0.00 0.00 99 1023.0
20260507072116 52 110 0.0 0.0 0.00 0.00 0.00 99 1023.0
20260507071537 52 110 0.0 0.0 0.00 0.00 0.00 99 1023.0
20260507070310 52 110 0.0 0.0 0.00 0.00 0.00 99 1023.0
20260507065753 52 110 0.0 0.0 0.00 0.00 0.00 99 1023.3
20260507064514 52 110 0.0 0.0 0.00 0.00 0.00 99 1023.3
20260507063913 52 110 0.0 0.0 0.00 0.00 0.00 99 1023.3
20260507063347 52 110 0.0 0.0 0.00 0.00 0.00 99 1023.3
20260507062716 52 110 0.0 0.0 0.00 0.00 0.00 99 1023.3
20260507062130 52 118 0.0 0.0 0.00 0.00 0.00 99 1023.7
20260507061517 52 105 0.0 0.0 0.00 0.00 0.00 99 1023.7
20260507060928 52 104 0.0 0.0 0.00 0.00 0.00 99 1023.7
20260507060317 52 105 0.0 0.0 0.00 0.00 0.00 99 1023.3
20260507055734 52 105 0.0 0.9 0.00 0.00 0.00 99 1023.3
20260507055110 52 105 0.9 0.9 0.00 0.00 0.00 99 1023.7
20260507053926 53 118 0.0 0.9 0.00 0.00 0.00 99 1024.0
20260507052712 53 148 1.7 1.7 0.00 0.00 0.00 99 1023.7
20260507052148 52 117 0.0 0.0 0.00 0.00 0.00 99 1023.3
20260507051524 52 120 0.0 0.0 0.00 0.00 0.00 99 1023.7
20260507050911 53 108 0.0 0.0 0.00 0.00 0.00 99 1023.3
20260507050342 53 108 0.9 0.9 0.00 0.00 0.00 99 1023.3
20260507045750 53 109 0.0 0.0 0.00 0.00 0.00 99 1023.3
20260507045142 53 109 0.0 0.0 0.00 0.00 0.00 99 1023.3
20260507044539 53 109 0.0 0.0 0.00 0.00 0.00 99 1023.3
20260507043954 53 109 0.0 0.0 0.00 0.00 0.00 99 1023.7
20260507041541 53 97 0.0 0.0 0.00 0.00 0.00 99 1023.3
20260507040932 53 109 0.9 0.9 0.00 0.00 0.00 99 1024.0
20260507040332 53 120 0.9 0.9 0.00 0.00 0.00 99 1024.0
20260507035713 53 99 0.0 0.0 0.00 0.00 1.00 99 1024.3
20260507035145 53 94 0.0 0.0 0.00 0.00 1.00 99 1024.3
20260507034518 54 108 0.0 0.0 0.00 0.00 1.00 99 1024.0
20260507033911 54 93 0.9 1.7 0.00 0.00 1.00 99 1024.0
20260507033343 54 97 0.0 0.9 0.00 0.00 1.00 99 1023.3
20260507032121 54 97 0.9 0.9 0.00 0.00 1.00 99 1023.3
20260507030950 54 118 0.0 0.0 0.00 0.00 1.00 99 1022.6
20260507030351 54 118 0.0 0.0 0.00 0.00 1.00 99 1022.3
20260507025726 54 118 0.0 0.0 0.00 0.00 1.00 99 1022.3
20260507024540 54 118 0.0 0.0 0.00 0.00 0.99 99 1022.3